Location: El Águila
(10.4167°N, 66.7167°W)
Time: 05:39:43
(UTC+00:00)

Lacrosse 4 Rocket - Pass Details

Date: 02 October 2022
Orbit: 534 x 616 km, 68.0° (Epoch: 26 November)

Event Time Altitude Azimuth Distance (km) Brightness Sun altitude
Rises 22:41:31 0° 183° (S) 2,668 4.9 -6.9°
Reaches altitude 10° 22:43:50 10° 174° (S) 1,778 3.9 -7.5°
Maximum altitude 22:47:27 35° 108° (ESE) 876 1.9 -8.4°
Drops below altitude 10° 22:51:06 10° 41° (NE) 1,789 3.5 -9.3°
Sets 22:53:25 0° 33° (NNE) 2,688 4.5 -9.9°
